Time,TemperatureF,DewpointF,PressureIn,WindDirection,WindDirectionDegrees,WindSpeedMPH,WindSpeedGustMPH,Humidity,HourlyPrecipIn,Conditions,Clouds,dailyrainin,SolarRadiationWatts/m^2,SoftwareType,DateUTC
2013-05-05 00:02:00,71.0,68.0,-100.00,SW,218,5.0,-999.0,90,0.00,,,-99.99,0.000000,,2013-05-05 04:02:00,
2013-05-05 00:12:00,71.0,68.0,-100.00,SW,218,5.0,-999.0,90,0.00,,,-99.99,0.000000,,2013-05-05 04:12:00,
2013-05-05 00:23:00,71.0,68.0,-100.00,SW,223,5.0,-999.0,91,0.00,,,-99.99,0.000000,,2013-05-05 04:23:00,
2013-05-05 00:33:00,70.0,68.0,-100.00,SW,216,4.0,-999.0,92,0.00,,,-99.99,0.000000,,2013-05-05 04:33:00,
2013-05-05 00:43:00,70.0,68.0,-100.00,SW,216,4.0,-999.0,92,0.00,,,-99.99,0.000000,,2013-05-05 04:43:00,
2013-05-05 00:53:00,70.0,68.0,-100.00,SW,218,5.0,-999.0,93,0.00,,,-99.99,0.000000,,2013-05-05 04:53:00,
2013-05-05 01:02:00,70.0,68.0,-100.00,SW,227,6.0,-999.0,94,0.00,,,-99.99,0.000000,,2013-05-05 05:02:00,
2013-05-05 01:12:00,70.0,68.0,-100.00,SW,227,6.0,-999.0,94,0.00,,,-99.99,0.000000,,2013-05-05 05:12:00,
2013-05-05 01:22:00,70.0,68.0,-100.00,SW,226,6.0,-999.0,95,0.00,,,-99.99,0.000000,,2013-05-05 05:22:00,
2013-05-05 01:32:00,70.0,68.0,-100.00,SW,225,5.0,-999.0,95,0.00,,,-99.99,0.000000,,2013-05-05 05:32:00,
2013-05-05 01:42:00,69.0,68.0,-100.00,SW,235,6.0,-999.0,96,0.00,,,-99.99,0.000000,,2013-05-05 05:42:00,
2013-05-05 01:52:00,69.0,68.0,-100.00,SW,235,6.0,-999.0,96,0.00,,,-99.99,0.000000,,2013-05-05 05:52:00,
2013-05-05 02:01:00,69.0,68.0,-100.00,WSW,242,7.0,-999.0,96,0.00,,,-99.99,0.000000,,2013-05-05 06:01:00,
2013-05-05 02:12:00,69.0,68.0,-100.00,WSW,250,7.0,-999.0,95,0.00,,,-99.99,0.000000,,2013-05-05 06:12:00,
2013-05-05 02:21:00,69.0,68.0,-100.00,WSW,250,7.0,-999.0,95,0.00,,,-99.99,0.000000,,2013-05-05 06:21:00,
2013-05-05 02:32:00,69.0,68.0,-100.00,West,264,6.0,-999.0,94,0.00,,,-99.99,0.000000,,2013-05-05 06:32:00,
2013-05-05 02:42:00,69.0,67.0,-100.00,WSW,249,8.0,-999.0,93,0.00,,,-99.99,0.000000,,2013-05-05 06:42:00,
2013-05-05 02:52:00,69.0,67.0,-100.00,WSW,249,8.0,-999.0,93,0.00,,,-99.99,0.000000,,2013-05-05 06:52:00,
2013-05-05 03:01:00,69.0,66.0,-100.00,WSW,258,8.0,-999.0,91,0.00,,,-99.99,0.000000,,2013-05-05 07:01:00,
2013-05-05 03:11:00,68.0,66.0,-100.00,West,280,7.0,-999.0,91,0.00,,,-99.99,0.000000,,2013-05-05 07:11:00,
2013-05-05 03:22:00,68.0,66.0,-100.00,West,280,7.0,-999.0,91,0.00,,,-99.99,0.000000,,2013-05-05 07:22:00,
2013-05-05 03:32:00,68.0,65.0,-100.00,West,275,7.0,-999.0,91,0.00,,,-99.99,0.000000,,2013-05-05 07:32:00,
2013-05-05 03:42:00,68.0,65.0,-100.00,West,263,8.0,-999.0,90,0.00,,,-99.99,0.000000,,2013-05-05 07:42:00,
2013-05-05 03:52:00,68.0,65.0,-100.00,West,263,8.0,-999.0,90,0.00,,,-99.99,0.000000,,2013-05-05 07:52:00,
2013-05-05 04:02:00,67.0,65.0,-100.00,WSW,245,7.0,-999.0,91,0.00,,,-99.99,0.000000,,2013-05-05 08:02:00,
2013-05-05 04:11:00,67.0,65.0,-100.00,WSW,251,7.0,-999.0,91,0.00,,,-99.99,0.000000,,2013-05-05 08:11:00,
2013-05-05 04:21:00,67.0,65.0,-100.00,WSW,251,7.0,-999.0,91,0.00,,,-99.99,0.000000,,2013-05-05 08:21:00,
2013-05-05 04:32:00,66.0,64.0,-100.00,West,263,6.0,-999.0,93,0.00,,,-99.99,0.000000,,2013-05-05 08:32:00,
2013-05-05 04:42:00,65.0,64.0,-100.00,West,269,7.0,-999.0,95,0.00,,,-99.99,0.000000,,2013-05-05 08:42:00,
2013-05-05 04:53:00,65.0,64.0,-100.00,West,269,7.0,-999.0,95,0.00,,,-99.99,0.000000,,2013-05-05 08:53:00,
2013-05-05 05:01:00,64.0,63.0,-100.00,West,277,7.0,-999.0,96,0.00,,,-99.99,0.000000,,2013-05-05 09:01:00,
2013-05-05 05:11:00,63.0,62.0,-100.00,WNW,284,6.0,-999.0,96,0.00,,,-99.99,0.100000,,2013-05-05 09:11:00,
2013-05-05 05:21:00,63.0,62.0,-100.00,WNW,284,6.0,-999.0,96,0.00,,,-99.99,0.100000,,2013-05-05 09:21:00,
2013-05-05 05:33:00,63.0,62.0,-100.00,WNW,288,6.0,-999.0,97,0.00,,,-99.99,0.000000,,2013-05-05 09:33:00,
2013-05-05 05:42:00,62.0,61.0,-100.00,WNW,285,6.0,-999.0,96,0.00,,,-99.99,0.000000,,2013-05-05 09:42:00,
2013-05-05 05:52:00,62.0,61.0,-100.00,WNW,285,6.0,-999.0,96,0.00,,,-99.99,0.000000,,2013-05-05 09:52:00,
2013-05-05 06:03:00,62.0,61.0,-100.00,West,273,6.0,-999.0,94,0.00,,,-99.99,0.000000,,2013-05-05 10:03:00,
2013-05-05 06:12:00,62.0,59.0,-100.00,West,266,7.0,-999.0,91,0.00,,,-99.99,0.000000,,2013-05-05 10:12:00,
2013-05-05 06:22:00,62.0,59.0,-100.00,West,266,7.0,-999.0,91,0.00,,,-99.99,0.000000,,2013-05-05 10:22:00,
2013-05-05 06:32:00,61.0,58.0,-100.00,West,275,6.0,-999.0,89,0.00,,,-99.99,0.000000,,2013-05-05 10:32:00,
2013-05-05 06:42:00,61.0,58.0,-100.00,West,275,6.0,-999.0,89,0.00,,,-99.99,0.000000,,2013-05-05 10:42:00,
2013-05-05 06:53:00,60.0,57.0,-100.00,West,265,7.0,-999.0,87,0.00,,,-99.99,0.100000,,2013-05-05 10:53:00,
2013-05-05 07:01:00,59.0,55.0,-100.00,West,268,6.0,-999.0,85,0.00,,,-99.99,1.200000,,2013-05-05 11:01:00,
2013-05-05 07:12:00,59.0,55.0,-100.00,West,276,5.0,-999.0,85,0.00,,,-99.99,7.400000,,2013-05-05 11:12:00,
2013-05-05 07:22:00,59.0,55.0,-100.00,West,276,5.0,-999.0,85,0.00,,,-99.99,7.400000,,2013-05-05 11:22:00,
2013-05-05 07:32:00,59.0,55.0,-100.00,West,269,5.0,-999.0,87,0.00,,,-99.99,22.700001,,2013-05-05 11:32:00,
2013-05-05 07:42:00,58.0,55.0,-100.00,West,271,4.0,-999.0,88,0.00,,,-99.99,64.599998,,2013-05-05 11:42:00,
2013-05-05 07:52:00,58.0,55.0,-100.00,West,271,4.0,-999.0,88,0.00,,,-99.99,64.599998,,2013-05-05 11:52:00,
2013-05-05 08:02:00,59.0,55.0,-100.00,West,273,4.0,-999.0,87,0.00,,,-99.99,111.400002,,2013-05-05 12:02:00,
2013-05-05 08:11:00,59.0,56.0,-100.00,West,264,4.0,-999.0,87,0.00,,,-99.99,112.400002,,2013-05-05 12:11:00,
2013-05-05 08:21:00,59.0,56.0,-100.00,West,264,4.0,-999.0,87,0.00,,,-99.99,112.400002,,2013-05-05 12:21:00,
2013-05-05 08:32:00,59.0,56.0,-100.00,West,260,5.0,-999.0,87,0.00,,,-99.99,245.100006,,2013-05-05 12:32:00,
2013-05-05 08:42:00,60.0,56.0,-100.00,West,265,6.0,-999.0,86,0.00,,,-99.99,102.099998,,2013-05-05 12:42:00,
2013-05-05 08:52:00,60.0,56.0,-100.00,West,265,6.0,-999.0,86,0.00,,,-99.99,102.099998,,2013-05-05 12:52:00,
2013-05-05 09:01:00,60.0,56.0,-100.00,West,263,6.0,-999.0,84,0.00,,,-99.99,351.799988,,2013-05-05 13:01:00,
2013-05-05 09:11:00,60.0,55.0,-100.00,West,266,6.0,-999.0,82,0.00,,,-99.99,408.500000,,2013-05-05 13:11:00,
2013-05-05 09:21:00,60.0,55.0,-100.00,West,266,6.0,-999.0,82,0.00,,,-99.99,408.500000,,2013-05-05 13:21:00,
2013-05-05 09:32:00,61.0,54.0,-100.00,West,267,8.0,-999.0,76,0.00,,,-99.99,458.200012,,2013-05-05 13:32:00,
2013-05-05 09:42:00,62.0,52.0,-100.00,WNW,299,6.0,-999.0,68,0.00,,,-99.99,518.799988,,2013-05-05 13:42:00,
2013-05-05 09:52:00,62.0,52.0,-100.00,WNW,299,6.0,-999.0,68,0.00,,,-99.99,518.799988,,2013-05-05 13:52:00,
2013-05-05 10:02:00,62.0,52.0,-100.00,WNW,299,6.0,-999.0,68,0.00,,,-99.99,518.799988,,2013-05-05 14:02:00,
2013-05-05 10:11:00,63.0,49.0,-100.00,WNW,289,9.0,-999.0,59,0.00,,,-99.99,610.599976,,2013-05-05 14:11:00,
2013-05-05 10:21:00,63.0,49.0,-100.00,WNW,289,9.0,-999.0,59,0.00,,,-99.99,610.599976,,2013-05-05 14:21:00,
2013-05-05 10:32:00,63.0,49.0,-100.00,NW,304,7.0,-999.0,59,0.00,,,-99.99,513.799988,,2013-05-05 14:32:00,
2013-05-05 10:42:00,64.0,48.0,-100.00,NW,305,7.0,-999.0,56,0.00,,,-99.99,560.099976,,2013-05-05 14:42:00,
2013-05-05 10:52:00,64.0,48.0,-100.00,NW,305,7.0,-999.0,56,0.00,,,-99.99,560.099976,,2013-05-05 14:52:00,
2013-05-05 11:02:00,65.0,48.0,-100.00,WNW,303,7.0,-999.0,54,0.00,,,-99.99,748.000000,,2013-05-05 15:02:00,
2013-05-05 11:11:00,66.0,47.0,-100.00,NW,306,8.0,-999.0,50,0.00,,,-99.99,809.000000,,2013-05-05 15:11:00,
2013-05-05 11:21:00,66.0,47.0,-100.00,NW,306,8.0,-999.0,50,0.00,,,-99.99,809.000000,,2013-05-05 15:21:00,
2013-05-05 11:33:00,67.0,47.0,-100.00,NW,309,8.0,-999.0,48,0.00,,,-99.99,811.000000,,2013-05-05 15:33:00,
2013-05-05 11:43:00,68.0,47.0,-100.00,NW,307,7.0,-999.0,46,0.00,,,-99.99,749.000000,,2013-05-05 15:43:00,
2013-05-05 11:53:00,68.0,47.0,-100.00,NW,307,7.0,-999.0,46,0.00,,,-99.99,749.000000,,2013-05-05 15:53:00,
2013-05-05 12:03:00,70.0,47.0,-100.00,NW,308,7.0,-999.0,45,0.00,,,-99.99,855.000000,,2013-05-05 16:03:00,
2013-05-05 12:12:00,70.0,45.0,-100.00,NW,312,8.0,-999.0,41,0.00,,,-99.99,895.000000,,2013-05-05 16:12:00,
2013-05-05 12:23:00,70.0,45.0,-100.00,NW,312,8.0,-999.0,41,0.00,,,-99.99,895.000000,,2013-05-05 16:23:00,
2013-05-05 12:32:00,70.0,45.0,-100.00,NW,313,8.0,-999.0,40,0.00,,,-99.99,891.000000,,2013-05-05 16:32:00,
2013-05-05 12:42:00,71.0,46.0,-100.00,NW,323,8.0,-999.0,40,0.00,,,-99.99,913.000000,,2013-05-05 16:42:00,
2013-05-05 12:53:00,71.0,46.0,-100.00,NW,323,8.0,-999.0,40,0.00,,,-99.99,913.000000,,2013-05-05 16:53:00,
2013-05-05 13:02:00,72.0,46.0,-100.00,NW,313,8.0,-999.0,39,0.00,,,-99.99,958.000000,,2013-05-05 17:02:00,
2013-05-05 13:12:00,72.0,46.0,-100.00,NW,304,8.0,-999.0,38,0.00,,,-99.99,969.000000,,2013-05-05 17:12:00,
2013-05-05 13:23:00,72.0,46.0,-100.00,NW,304,8.0,-999.0,38,0.00,,,-99.99,969.000000,,2013-05-05 17:23:00,
2013-05-05 13:32:00,73.0,46.0,-100.00,NW,305,7.0,-999.0,38,0.00,,,-99.99,966.000000,,2013-05-05 17:32:00,
2013-05-05 13:42:00,73.0,46.0,-100.00,WNW,296,8.0,-999.0,38,0.00,,,-99.99,961.000000,,2013-05-05 17:42:00,
2013-05-05 13:52:00,73.0,46.0,-100.00,WNW,296,8.0,-999.0,38,0.00,,,-99.99,961.000000,,2013-05-05 17:52:00,
2013-05-05 14:01:00,73.0,46.0,-100.00,WNW,288,9.0,-999.0,37,0.00,,,-99.99,971.000000,,2013-05-05 18:01:00,
2013-05-05 14:12:00,74.0,46.0,-100.00,NW,307,7.0,-999.0,37,0.00,,,-99.99,960.000000,,2013-05-05 18:12:00,
2013-05-05 14:21:00,74.0,46.0,-100.00,NW,307,7.0,-999.0,37,0.00,,,-99.99,960.000000,,2013-05-05 18:21:00,
2013-05-05 14:32:00,75.0,46.0,-100.00,NW,310,7.0,-999.0,36,0.00,,,-99.99,951.000000,,2013-05-05 18:32:00,
2013-05-05 14:42:00,74.0,46.0,-100.00,WNW,289,8.0,-999.0,36,0.00,,,-99.99,933.000000,,2013-05-05 18:42:00,
2013-05-05 14:52:00,74.0,46.0,-100.00,WNW,289,8.0,-999.0,36,0.00,,,-99.99,933.000000,,2013-05-05 18:52:00,
2013-05-05 15:01:00,75.0,46.0,-100.00,WNW,303,7.0,-999.0,35,0.00,,,-99.99,917.000000,,2013-05-05 19:01:00,
2013-05-05 15:11:00,75.0,45.0,-100.00,WNW,302,8.0,-999.0,34,0.00,,,-99.99,897.000000,,2013-05-05 19:11:00,
2013-05-05 15:21:00,75.0,45.0,-100.00,WNW,302,8.0,-999.0,34,0.00,,,-99.99,897.000000,,2013-05-05 19:21:00,
2013-05-05 15:32:00,76.0,46.0,-100.00,WNW,294,6.0,-999.0,35,0.00,,,-99.99,871.000000,,2013-05-05 19:32:00,
2013-05-05 15:42:00,76.0,46.0,-100.00,NW,319,7.0,-999.0,34,0.00,,,-99.99,844.000000,,2013-05-05 19:42:00,
2013-05-05 15:52:00,76.0,46.0,-100.00,NW,319,7.0,-999.0,34,0.00,,,-99.99,844.000000,,2013-05-05 19:52:00,
2013-05-05 16:01:00,76.0,47.0,-100.00,WNW,290,6.0,-999.0,35,0.00,,,-99.99,812.000000,,2013-05-05 20:01:00,
2013-05-05 16:11:00,76.0,47.0,-100.00,West,265,7.0,-999.0,35,0.00,,,-99.99,780.000000,,2013-05-05 20:11:00,
2013-05-05 16:21:00,76.0,47.0,-100.00,West,265,7.0,-999.0,35,0.00,,,-99.99,780.000000,,2013-05-05 20:21:00,
2013-05-05 16:32:00,77.0,47.0,-100.00,WNW,286,5.0,-999.0,34,0.00,,,-99.99,741.000000,,2013-05-05 20:32:00,
2013-05-05 16:42:00,77.0,48.0,-100.00,WNW,294,6.0,-999.0,34,0.00,,,-99.99,699.700012,,2013-05-05 20:42:00,
2013-05-05 16:52:00,77.0,48.0,-100.00,WNW,294,6.0,-999.0,34,0.00,,,-99.99,699.700012,,2013-05-05 20:52:00,
2013-05-05 17:02:00,77.0,46.0,-100.00,West,275,7.0,-999.0,33,0.00,,,-99.99,656.000000,,2013-05-05 21:02:00,
2013-05-05 17:11:00,77.0,45.0,-100.00,West,268,7.0,-999.0,32,0.00,,,-99.99,608.900024,,2013-05-05 21:11:00,
2013-05-05 17:21:00,77.0,45.0,-100.00,West,268,7.0,-999.0,32,0.00,,,-99.99,608.900024,,2013-05-05 21:21:00,
2013-05-05 17:33:00,77.0,46.0,-100.00,WNW,299,7.0,-999.0,32,0.00,,,-99.99,558.599976,,2013-05-05 21:33:00,
2013-05-05 17:42:00,77.0,47.0,-100.00,WNW,295,5.0,-999.0,33,0.00,,,-99.99,507.000000,,2013-05-05 21:42:00,
2013-05-05 17:53:00,77.0,47.0,-100.00,WNW,295,5.0,-999.0,33,0.00,,,-99.99,507.000000,,2013-05-05 21:53:00,
2013-05-05 18:02:00,78.0,47.0,-100.00,WNW,282,5.0,-999.0,34,0.00,,,-99.99,453.799988,,2013-05-05 22:02:00,
2013-05-05 18:12:00,77.0,47.0,-100.00,WNW,290,6.0,-999.0,34,0.00,,,-99.99,400.200012,,2013-05-05 22:12:00,
2013-05-05 18:22:00,77.0,47.0,-100.00,WNW,290,6.0,-999.0,34,0.00,,,-99.99,400.200012,,2013-05-05 22:22:00,
2013-05-05 18:33:00,77.0,49.0,-100.00,WSW,251,7.0,-999.0,36,0.00,,,-99.99,174.100006,,2013-05-05 22:33:00,
2013-05-05 18:42:00,76.0,51.0,-100.00,WSW,250,8.0,-999.0,41,0.00,,,-99.99,221.100006,,2013-05-05 22:42:00,
2013-05-05 18:52:00,76.0,51.0,-100.00,WSW,250,8.0,-999.0,41,0.00,,,-99.99,221.100006,,2013-05-05 22:52:00,
2013-05-05 19:02:00,76.0,51.0,-100.00,West,265,7.0,-999.0,42,0.00,,,-99.99,221.100006,,2013-05-05 23:02:00,
2013-05-05 19:11:00,76.0,51.0,-100.00,West,265,7.0,-999.0,42,0.00,,,-99.99,221.100006,,2013-05-05 23:11:00,
2013-05-05 19:21:00,75.0,50.0,-100.00,West,264,8.0,-999.0,42,0.00,,,-99.99,179.399994,,2013-05-05 23:21:00,
2013-05-05 19:32:00,74.0,50.0,-100.00,West,269,7.0,-999.0,43,0.00,,,-99.99,117.599998,,2013-05-05 23:32:00,
2013-05-05 19:42:00,74.0,50.0,-100.00,West,269,7.0,-999.0,43,0.00,,,-99.99,117.599998,,2013-05-05 23:42:00,
2013-05-05 19:52:00,73.0,50.0,-100.00,West,266,7.0,-999.0,44,0.00,,,-99.99,39.500000,,2013-05-05 23:52:00,
2013-05-05 20:01:00,72.0,50.0,-100.00,West,261,6.0,-999.0,46,0.00,,,-99.99,18.600000,,2013-05-06 00:01:00,
2013-05-05 20:11:00,71.0,51.0,-100.00,WSW,254,5.0,-999.0,50,0.00,,,-99.99,10.900000,,2013-05-06 00:11:00,
2013-05-05 20:22:00,71.0,51.0,-100.00,WSW,254,5.0,-999.0,50,0.00,,,-99.99,10.900000,,2013-05-06 00:22:00,
2013-05-05 20:32:00,70.0,52.0,-100.00,WSW,250,4.0,-999.0,53,0.00,,,-99.99,3.000000,,2013-05-06 00:32:00,
2013-05-05 20:42:00,69.0,51.0,-100.00,WSW,251,4.0,-999.0,53,0.00,,,-99.99,0.200000,,2013-05-06 00:42:00,
2013-05-05 20:52:00,69.0,51.0,-100.00,WSW,251,4.0,-999.0,53,0.00,,,-99.99,0.200000,,2013-05-06 00:52:00,
2013-05-05 21:01:00,68.0,51.0,-100.00,WSW,241,3.0,-999.0,53,0.00,,,-99.99,0.000000,,2013-05-06 01:01:00,
2013-05-05 21:11:00,67.0,51.0,-100.00,WSW,245,3.0,-999.0,56,0.00,,,-99.99,0.000000,,2013-05-06 01:11:00,
2013-05-05 21:21:00,67.0,51.0,-100.00,WSW,245,3.0,-999.0,56,0.00,,,-99.99,0.000000,,2013-05-06 01:21:00,
2013-05-05 21:31:00,67.0,52.0,-100.00,WSW,241,3.0,-999.0,58,0.00,,,-99.99,0.000000,,2013-05-06 01:31:00,
2013-05-05 21:42:00,67.0,52.0,-100.00,WSW,241,3.0,-999.0,58,0.00,,,-99.99,0.000000,,2013-05-06 01:42:00,
2013-05-05 21:52:00,66.0,53.0,-100.00,WSW,239,3.0,-999.0,61,0.00,,,-99.99,0.000000,,2013-05-06 01:52:00,
2013-05-05 22:02:00,66.0,53.0,-100.00,WSW,251,3.0,-999.0,63,0.00,,,-99.99,0.000000,,2013-05-06 02:02:00,
2013-05-05 22:12:00,66.0,54.0,-100.00,WSW,255,3.0,-999.0,65,0.00,,,-99.99,0.000000,,2013-05-06 02:12:00,
2013-05-05 22:21:00,66.0,54.0,-100.00,WSW,255,3.0,-999.0,65,0.00,,,-99.99,0.000000,,2013-05-06 02:21:00,
2013-05-05 22:32:00,66.0,54.0,-100.00,WSW,249,3.0,-999.0,67,0.00,,,-99.99,0.000000,,2013-05-06 02:32:00,
2013-05-05 22:42:00,66.0,55.0,-100.00,WSW,238,3.0,-999.0,68,0.00,,,-99.99,0.000000,,2013-05-06 02:42:00,
2013-05-05 22:52:00,66.0,55.0,-100.00,WSW,238,3.0,-999.0,68,0.00,,,-99.99,0.000000,,2013-05-06 02:52:00,
2013-05-05 23:02:00,65.0,55.0,-100.00,SW,222,3.0,-999.0,70,0.00,,,-99.99,0.000000,,2013-05-06 03:02:00,
2013-05-05 23:11:00,64.0,56.0,-100.00,SW,221,2.0,-999.0,73,0.00,,,-99.99,0.000000,,2013-05-06 03:11:00,
2013-05-05 23:22:00,64.0,56.0,-100.00,SW,221,2.0,-999.0,73,0.00,,,-99.99,0.000000,,2013-05-06 03:22:00,
2013-05-05 23:33:00,64.0,56.0,-100.00,SW,215,2.0,-999.0,74,0.00,,,-99.99,0.000000,,2013-05-06 03:33:00,
2013-05-05 23:42:00,64.0,56.0,-100.00,SW,224,2.0,-999.0,75,0.00,,,-99.99,0.000000,,2013-05-06 03:42:00,
2013-05-05 23:52:00,64.0,56.0,-100.00,SW,224,2.0,-999.0,75,0.00,,,-99.99,0.000000,,2013-05-06 03:52:00,